• In Uzbekistan
  • List of Countries
  • For 7 days
  • Water Temperature
  • Satellite Maps
  • Weather Map
  • Weather Widgets
  • user-avatar
    Login

    Hourly Weather Topolina

    Today, 20 February, Wednesday

    Time Temperature Precipitation Wind Pressure Humidity
    00:00 +5°C° 0.2 mm 4 mps 745 mmHg 82%
    01:00 +5°C° 0 mm 4 mps 745 mmHg 84%
    02:00 +4°C° 0.1 mm 4 mps 745 mmHg 85%
    03:00 +4°C° 0.1 mm 4 mps 745 mmHg 87%
    04:00 +3°C° 0.1 mm 4 mps 745 mmHg 88%
    05:00 +3°C° 0 mm 4 mps 745 mmHg 87%
    06:00 +2°C° 0 mm 5 mps 745 mmHg 86%
    07:00 +2°C° 0 mm 5 mps 746 mmHg 86%
    08:00 +3°C° 0.1 mm 5 mps 746 mmHg 81%
    09:00 +3°C° 0.1 mm 6 mps 746 mmHg 77%
    10:00 +4°C° 0.1 mm 6 mps 747 mmHg 72%
    11:00 +4°C° 0 mm 6 mps 747 mmHg 69%
    12:00 +5°C° 0 mm 6 mps 747 mmHg 66%
    13:00 +5°C° 0 mm 7 mps 747 mmHg 62%
    14:00 +5°C° 0.1 mm 6 mps 747 mmHg 62%
    15:00 +5°C° 0.1 mm 6 mps 747 mmHg 61%
    16:00 +6°C° 0.1 mm 5 mps 747 mmHg 60%
    17:00 +5°C° 0 mm 5 mps 748 mmHg 65%
    18:00 +5°C° 0 mm 4 mps 748 mmHg 69%
    19:00 +4°C° 0 mm 3 mps 748 mmHg 73%
    20:00 +4°C° 0 mm 3 mps 749 mmHg 74%
    21:00 +4°C° 0 mm 3 mps 749 mmHg 75%
    22:00 +4°C° 0 mm 4 mps 750 mmHg 76%
    23:00 +4°C° 0 mm 4 mps 750 mmHg 78%

    Tomorrow, 21 February, Thursday

    Time Temperature Precipitation Wind Pressure Humidity
    00:00 +3°C° 0 mm 4 mps 750 mmHg 79%
    01:00 +3°C° 0 mm 4 mps 750 mmHg 81%
    02:00 +3°C° 0 mm 4 mps 750 mmHg 81%
    03:00 +3°C° 0 mm 4 mps 750 mmHg 81%
    04:00 +3°C° 0 mm 4 mps 750 mmHg 81%
    05:00 +1°C° 0 mm 4 mps 751 mmHg 81%
    06:00 +1°C° 0 mm 4 mps 751 mmHg 81%
    07:00 +1°C° 0 mm 4 mps 751 mmHg 80%
    08:00 +3°C° 0 mm 4 mps 751 mmHg 75%
    09:00 +5°C° 0 mm 4 mps 751 mmHg 70%
    10:00 +6°C° 0 mm 5 mps 751 mmHg 64%
    11:00 +7°C° 0 mm 5 mps 751 mmHg 61%
    12:00 +8°C° 0 mm 5 mps 750 mmHg 58%
    13:00 +8°C° 0 mm 5 mps 750 mmHg 55%
    14:00 +8°C° 0 mm 5 mps 749 mmHg 57%
    15:00 +8°C° 0 mm 4 mps 749 mmHg 60%
    16:00 +7°C° 0 mm 4 mps 749 mmHg 62%
    17:00 +7°C° 0.5 mm 4 mps 749 mmHg 67%
    18:00 +6°C° 0.5 mm 5 mps 748 mmHg 72%
    19:00 +6°C° 0.5 mm 5 mps 748 mmHg 77%
    20:00 +6°C° 0.8 mm 5 mps 748 mmHg 78%
    21:00 +4°C° 0.8 mm 6 mps 748 mmHg 79%
    22:00 +4°C° 0.8 mm 6 mps 747 mmHg 79%
    23:00 +4°C° 0.5 mm 6 mps 747 mmHg 80%

    Day after tomorrow, 22 February, Friday

    Time Temperature Precipitation Wind Pressure Humidity
    00:00 +4°C° 0.5 mm 6 mps 746 mmHg 81%
    01:00 +4°C° 0.5 mm 6 mps 746 mmHg 82%
    02:00 +4°C° 0.6 mm 6 mps 745 mmHg 84%
    03:00 +4°C° 0.6 mm 6 mps 745 mmHg 86%
    04:00 +4°C° 0.6 mm 6 mps 745 mmHg 88%
    05:00 +4°C° 0.7 mm 6 mps 745 mmHg 88%
    06:00 +4°C° 0.7 mm 6 mps 745 mmHg 88%
    07:00 +4°C° 0.7 mm 6 mps 746 mmHg 88%
    08:00 +2°C° 0.5 mm 7 mps 747 mmHg 85%
    09:00 0°C° 0.5 mm 7 mps 748 mmHg 82%
    10:00 -2°C° 0.5 mm 7 mps 749 mmHg 78%
    11:00 -2°C° 0.1 mm 7 mps 751 mmHg 74%
    12:00 -2°C° 0.1 mm 7 mps 752 mmHg 70%
    13:00 -3°C° 0.1 mm 6 mps 753 mmHg 65%
    14:00 -3°C° 0 mm 6 mps 754 mmHg 62%
    15:00 -3°C° 0 mm 6 mps 754 mmHg 58%
    16:00 -3°C° 0 mm 6 mps 755 mmHg 55%
    17:00 -4°C° 0 mm 6 mps 756 mmHg 57%
    18:00 -5°C° 0 mm 6 mps 756 mmHg 60%
    19:00 -6°C° 0 mm 5 mps 757 mmHg 62%
    20:00 -6°C° 0 mm 5 mps 758 mmHg 60%
    21:00 -7°C° 0 mm 5 mps 758 mmHg 58%
    22:00 -7°C° 0 mm 5 mps 759 mmHg 56%
    23:00 -7°C° 0 mm 5 mps 759 mmHg 52%

    23 February, Saturday

    Time Temperature Precipitation Wind Pressure Humidity
    00:00 -7°C° 0 mm 5 mps 759 mmHg 49%
    01:00 -7°C° 0 mm 5 mps 760 mmHg 46%
    02:00 -7°C° 0 mm 4 mps 760 mmHg 46%
    03:00 -7°C° 0 mm 4 mps 760 mmHg 45%
    04:00 -8°C° 0 mm 4 mps 760 mmHg 44%
    05:00 -8°C° 0 mm 4 mps 760 mmHg 45%
    06:00 -7°C° 0 mm 3 mps 761 mmHg 46%
    07:00 -7°C° 0 mm 3 mps 761 mmHg 48%
    08:00 -7°C° 0 mm 4 mps 761 mmHg 45%
    09:00 -7°C° 0 mm 4 mps 762 mmHg 43%
    10:00 -5°C° 0 mm 4 mps 762 mmHg 41%
    11:00 -5°C° 0 mm 4 mps 762 mmHg 38%
    12:00 -4°C° 0 mm 3 mps 762 mmHg 35%
    13:00 -2°C° 0 mm 3 mps 761 mmHg 33%
    14:00 -2°C° 0 mm 3 mps 761 mmHg 34%
    15:00 -2°C° 0 mm 3 mps 761 mmHg 34%
    16:00 -3°C° 0 mm 4 mps 761 mmHg 35%
    17:00 -4°C° 0 mm 3 mps 761 mmHg 38%
    18:00 -4°C° 0 mm 2 mps 761 mmHg 42%
    19:00 -4°C° 0 mm 2 mps 761 mmHg 45%
    20:00 -2°C° 0 mm 1 mps 761 mmHg 45%
    21:00 -2°C° 0 mm 1 mps 762 mmHg 46%
    22:00 -2°C° 0 mm 1 mps 762 mmHg 46%
    23:00 -3°C° 0 mm 1 mps 761 mmHg 46%

    24 February, Sunday

    Time Temperature Precipitation Wind Pressure Humidity
    00:00 -3°C° 0 mm 1 mps 761 mmHg 46%
    01:00 -3°C° 0 mm 1 mps 761 mmHg 46%
    02:00 -3°C° 0 mm 1 mps 761 mmHg 46%
    03:00 -3°C° 0 mm 1 mps 761 mmHg 47%
    04:00 -3°C° 0 mm 1 mps 761 mmHg 47%
    05:00 -3°C° 0 mm 1 mps 760 mmHg 46%
    06:00 -5°C° 0 mm 2 mps 760 mmHg 46%
    07:00 -5°C° 0 mm 2 mps 760 mmHg 46%
    08:00 -4°C° 0 mm 2 mps 760 mmHg 40%
    09:00 -3°C° 0 mm 2 mps 760 mmHg 35%
    10:00 -1°C° 0 mm 2 mps 760 mmHg 30%
    11:00 -1°C° 0 mm 2 mps 760 mmHg 30%
    12:00 +1°C° 0 mm 2 mps 760 mmHg 31%
    13:00 +2°C° 0 mm 2 mps 759 mmHg 31%
    14:00 +2°C° 0 mm 2 mps 759 mmHg 35%
    15:00 +2°C° 0 mm 2 mps 759 mmHg 38%
    16:00 +2°C° 0 mm 2 mps 759 mmHg 42%
    17:00 +1°C° 0 mm 2 mps 759 mmHg 45%
    18:00 -1°C° 0 mm 2 mps 759 mmHg 48%
    19:00 0°C° 0 mm 1 mps 759 mmHg 51%
    20:00 -2°C° 0 mm 2 mps 759 mmHg 52%
    21:00 -2°C° 0 mm 2 mps 759 mmHg 52%
    22:00 -2°C° 0 mm 2 mps 759 mmHg 53%
    23:00 -3°C° 0 mm 2 mps 759 mmHg 54%

    25 February, Monday

    Time Temperature Precipitation Wind Pressure Humidity
    00:00 -3°C° 0 mm 2 mps 759 mmHg 55%
    01:00 -3°C° 0 mm 2 mps 759 mmHg 55%
    02:00 -3°C° 0 mm 2 mps 759 mmHg 55%
    03:00 -2°C° 0 mm 2 mps 758 mmHg 56%
    04:00 -2°C° 0 mm 2 mps 758 mmHg 56%
    05:00 -2°C° 0 mm 3 mps 758 mmHg 55%
    06:00 -2°C° 0 mm 3 mps 757 mmHg 55%
    07:00 -2°C° 0 mm 3 mps 757 mmHg 55%
    08:00 -1°C° 0 mm 4 mps 757 mmHg 53%
    09:00 0°C° 0 mm 4 mps 757 mmHg 51%
    10:00 +1°C° 0 mm 5 mps 757 mmHg 50%
    11:00 +2°C° 0 mm 5 mps 756 mmHg 53%
    12:00 +3°C° 0 mm 6 mps 756 mmHg 56%
    13:00 +4°C° 0 mm 6 mps 756 mmHg 58%
    14:00 +3°C° 0 mm 5 mps 756 mmHg 66%
    15:00 +3°C° 0 mm 5 mps 756 mmHg 73%
    16:00 +3°C° 0 mm 4 mps 756 mmHg 80%
    17:00 +1°C° 0 mm 4 mps 756 mmHg 83%
    18:00 +2°C° 0 mm 3 mps 757 mmHg 86%
    19:00 +2°C° 0 mm 2 mps 757 mmHg 89%
    20:00 +1°C° 0 mm 2 mps 757 mmHg 91%
    21:00 -1°C° 0 mm 2 mps 757 mmHg 92%
    22:00 -1°C° 0 mm 2 mps 758 mmHg 93%
    23:00 -1°C° 0 mm 2 mps 757 mmHg 94%
    Show more